Regional Weather Roundup
Issued by NWS Tiyan, Guam

Home | Current Version | Previous Version | Text Only | Print | Product List | Glossary On
Versions: 1 2 3 4 5 6 7 8 9 10 11 12 13 14 15 16 17 18 19 20 21 22 23 24 25 26 27 28 29 30 31 32 33 34 35 36 37 38 39 40 41 42 43 44 45 46 47 48 49
000
ASGM40 PGUM 240712
RWRGUM
WEATHER ROUNDUP FOR THE MARIANAS
NATIONAL WEATHER SERVICE TIYAN GU
500 PM CHST THU JUL 24 2014

GUZ001>004-240800-
MARIANA ISLANDS-

CITY           SKY/WX    TMP DP  RH WIND       PRES   REMARKS
GUAM AIRPORT   SUNNY     84  79  84 E10       29.74R HX  96
ANDERSEN AFB   MOSUNNY   82  77  83 SE9       29.74R HX  91
ROTA AIRPORT   PTSUNNY   82  77  83 E8        29.74S HX  91
TINIAN AP      NOT AVBL
SAIPAN AP      MOSUNNY   82  79  89 E7        29.74S HX  93

$$




USA.gov is the U.S. government's official web portal to all federal, state and local government web resources and services.